Regional Weather Roundup
Issued by NWS

Home | Current Version | Previous Version | Text Only | Print | Product List | Glossary On
Versions: 1 2 3 4 5 6 7 8 9 10 11 12 13 14 15 16 17 18 19 20 21 22 23 24 25 26 27 28 29 30 31 32 33 34 35 36 37 38 39 40 41 42 43 44 45 46 47 48 49 50
000
ASUS45 KBOI 092210
RWRID

IDAHO REGIONAL WEATHER ROUNDUP
NATIONAL WEATHER SERVICE BOISE ID
300 PM MST FRI DEC 09 2016

NOTE: "FAIR" INDICATES FEW OR NO CLOUDS BELOW 12000 FEET
WITH NO SIGNIFICANT WEATHER AND/OR OBSTRUCTIONS TO VISIBILITY

IDZ012-014-092300-
SOUTHWEST IDAHO


CITY           SKY/WX    TMP DP  RH WIND       PRES   REMARKS
BOISE          MIX PCPN  31  28  89 N8        30.07F FOG     WCI  23
CALDWELL       FLURRIES  29  27  92 W3        30.10F
MOUNTAIN HOME  PTSUNNY   30  30 100 SE8       30.05F WCI  22
$$

IDZ016-017-092300-
SOUTHCENTRAL IDAHO


CITY           SKY/WX    TMP DP  RH WIND       PRES   REMARKS
JEROME         LGT RAIN  36  35  96 E8        30.06F WCI  30
TWIN FALLS     LGT RAIN  38  34  85 CALM      30.06F
$$

IDZ019>023-092300-
SOUTHEAST IDAHO


CITY           SKY/WX    TMP DP  RH WIND       PRES   REMARKS
IDAHO FALLS    CLOUDY    23  20  88 CALM      30.09F FOG
POCATELLO      LGT SNOW  30  28  92 NE10      30.09F FOG     WCI  21
REXBURG        CLOUDY    24  22  91 W3        30.08S FOG
$$

IDZ006-010-011-018-031-032-092300-
CENTRAL IDAHO MOUNTAINS


CITY           SKY/WX    TMP DP  RH WIND       PRES   REMARKS
MCCALL         SNOW      28  26  92 CALM      29.95F VSB 1/4
HAILEY         LGT SNOW  28  27  93 SE12      30.05F WCI  18
STANLEY          N/A     34  31  88 SE7       29.98S WCI  28
SALMON         CLOUDY    18  16  93 CALM      30.07F
CHALLIS        LGT SNOW  18  16  92 CALM      30.00F FOG
$$

IDZ002-004-006-007-026-092300-
NORTHERN IDAHO


CITY           SKY/WX    TMP DP  RH WIND       PRES   REMARKS
LEWISTON       CLOUDY    27  24  89 NW5       30.05F FOG     WCI  22
LOWELL           N/A     28  22  78 N3        30.11F
COEUR D`ALENE  FLURRIES  19  13  77 N18       30.05F WCI   4
MULLAN PASS    SNOW      17  15  92 S3        29.86F VSB 1/2
$$



USA.gov is the U.S. government's official web portal to all federal, state and local government web resources and services.